Time,TemperatureF,DewpointF,PressureIn,WindDirection,WindDirectionDegrees,WindSpeedMPH,WindSpeedGustMPH,Humidity,HourlyPrecipIn,Conditions,Clouds,dailyrainin,SolarRadiationWatts/m^2,SoftwareType,DateUTC
2013-03-15 00:09:00,29.5,26.0,30.03,NNE,26,0.0,0.0,86,0.00,,,0.00,0,weatherlink.com 1.10,2013-03-15 05:09:00,
2013-03-15 00:24:00,29.6,26.0,30.02,NNE,26,0.0,0.0,87,0.00,,,0.00,0,weatherlink.com 1.10,2013-03-15 05:24:00,
2013-03-15 00:39:00,28.9,25.0,30.02,NNE,25,0.0,0.0,86,0.00,,,0.00,0,weatherlink.com 1.10,2013-03-15 05:39:00,
2013-03-15 00:54:00,29.0,26.0,30.02,NNE,26,0.0,0.0,88,0.00,,,0.00,0,weatherlink.com 1.10,2013-03-15 05:54:00,
2013-03-15 01:09:00,29.1,26.0,30.02,NNE,26,0.0,0.0,88,0.00,,,0.00,0,weatherlink.com 1.10,2013-03-15 06:09:00,
2013-03-15 01:24:00,29.3,26.0,30.01,NNE,26,0.0,0.0,88,0.00,,,0.00,0,weatherlink.com 1.10,2013-03-15 06:24:00,
2013-03-15 01:39:00,27.8,25.0,30.00,NNE,26,0.0,0.0,88,0.00,,,0.00,0,weatherlink.com 1.10,2013-03-15 06:39:00,
2013-03-15 01:54:00,28.5,26.0,29.99,NNE,25,0.0,0.0,89,0.00,,,0.00,0,weatherlink.com 1.10,2013-03-15 06:54:00,
2013-03-15 02:09:00,28.8,26.0,30.00,NNE,26,0.0,0.0,89,0.00,,,0.00,0,weatherlink.com 1.10,2013-03-15 07:09:00,
2013-03-15 02:24:00,28.8,26.0,30.00,NNE,25,0.0,0.0,89,0.00,,,0.00,0,weatherlink.com 1.10,2013-03-15 07:24:00,
2013-03-15 02:39:00,28.9,26.0,30.00,NNE,25,0.0,2.0,89,0.00,,,0.00,0,weatherlink.com 1.10,2013-03-15 07:39:00,
2013-03-15 02:54:00,29.1,26.0,30.00,NNE,25,0.0,0.0,89,0.00,,,0.00,0,weatherlink.com 1.10,2013-03-15 07:54:00,
2013-03-15 03:09:00,29.2,26.0,30.00,NNE,25,0.0,0.0,89,0.00,,,0.00,0,weatherlink.com 1.10,2013-03-15 08:09:00,
2013-03-15 03:24:00,29.2,26.0,30.00,NNE,25,0.0,0.0,89,0.00,,,0.00,0,weatherlink.com 1.10,2013-03-15 08:24:00,
2013-03-15 03:39:00,29.2,26.0,29.99,NNE,25,0.0,0.0,89,0.00,,,0.00,0,weatherlink.com 1.10,2013-03-15 08:39:00,
2013-03-15 03:54:00,29.3,27.0,29.99,NNE,25,0.0,0.0,89,0.00,,,0.00,0,weatherlink.com 1.10,2013-03-15 08:54:00,
2013-03-15 04:09:00,29.6,27.0,29.99,North,355,2.0,4.0,89,0.00,,,0.00,0,weatherlink.com 1.10,2013-03-15 09:09:00,
2013-03-15 04:24:00,30.0,27.0,29.99,NW,322,2.0,5.0,89,0.00,,,0.00,0,weatherlink.com 1.10,2013-03-15 09:24:00,
2013-03-15 04:39:00,30.3,28.0,29.98,NNW,333,2.0,6.0,89,0.00,,,0.00,0,weatherlink.com 1.10,2013-03-15 09:39:00,
2013-03-15 04:55:00,30.6,28.0,29.98,North,355,0.0,8.0,89,0.00,,,0.00,0,weatherlink.com 1.10,2013-03-15 09:55:00,
2013-03-15 05:10:00,30.6,28.0,29.97,North,5,0.0,5.0,88,0.00,,,0.00,0,weatherlink.com 1.10,2013-03-15 10:10:00,
2013-03-15 05:25:00,30.7,28.0,29.97,North,360,0.0,2.0,88,0.00,,,0.00,0,weatherlink.com 1.10,2013-03-15 10:25:00,
2013-03-15 05:40:00,30.8,28.0,29.97,North,5,0.0,0.0,89,0.00,,,0.00,0,weatherlink.com 1.10,2013-03-15 10:40:00,
2013-03-15 05:55:00,30.9,28.0,29.96,North,5,0.0,0.0,89,0.00,,,0.00,0,weatherlink.com 1.10,2013-03-15 10:55:00,
2013-03-15 06:10:00,30.8,28.0,29.96,North,5,0.0,0.0,89,0.00,,,0.00,0,weatherlink.com 1.10,2013-03-15 11:10:00,
2013-03-15 06:25:00,30.8,28.0,29.96,North,5,0.0,0.0,89,0.00,,,0.00,0,weatherlink.com 1.10,2013-03-15 11:25:00,
2013-03-15 06:40:00,30.9,28.0,29.96,North,5,0.0,0.0,90,0.00,,,0.00,0,weatherlink.com 1.10,2013-03-15 11:40:00,
2013-03-15 06:55:00,31.0,29.0,29.95,North,5,4.0,4.0,90,0.00,,,0.00,0,weatherlink.com 1.10,2013-03-15 11:55:00,
2013-03-15 07:10:00,31.1,29.0,29.94,North,11,3.0,8.0,90,0.00,,,0.00,0,weatherlink.com 1.10,2013-03-15 12:10:00,
2013-03-15 07:25:00,31.2,29.0,29.93,North,5,3.0,6.0,90,0.00,,,0.00,0,weatherlink.com 1.10,2013-03-15 12:25:00,
2013-03-15 07:55:00,31.3,29.0,29.94,NNE,15,0.0,4.0,91,0.00,,,0.00,12,weatherlink.com 1.10,2013-03-15 12:55:00,
2013-03-15 08:10:00,31.5,29.0,29.94,NNE,16,0.0,4.0,91,0.00,,,0.00,25,weatherlink.com 1.10,2013-03-15 13:10:00,
2013-03-15 08:25:00,31.7,29.0,29.94,NNE,16,0.0,0.0,91,0.00,,,0.00,42,weatherlink.com 1.10,2013-03-15 13:25:00,
2013-03-15 08:40:00,31.9,30.0,29.94,NNE,16,0.0,0.0,91,0.00,,,0.00,54,weatherlink.com 1.10,2013-03-15 13:40:00,
2013-03-15 08:55:00,32.0,30.0,29.94,NNE,16,0.0,0.0,91,0.00,,,0.00,42,weatherlink.com 1.10,2013-03-15 13:55:00,
2013-03-15 09:10:00,32.1,30.0,29.93,NNE,20,0.0,4.0,91,0.00,,,0.00,58,weatherlink.com 1.10,2013-03-15 14:10:00,
2013-03-15 09:25:00,32.3,30.0,29.93,NNE,13,3.0,5.0,92,0.00,,,0.00,88,weatherlink.com 1.10,2013-03-15 14:25:00,
2013-03-15 09:40:00,32.5,31.0,29.93,NNE,16,2.0,6.0,92,0.01,,,0.01,93,weatherlink.com 1.10,2013-03-15 14:40:00,
2013-03-15 09:55:00,32.6,31.0,29.93,NE,46,0.0,8.0,92,0.05,,,0.05,134,weatherlink.com 1.10,2013-03-15 14:55:00,
2013-03-15 10:10:00,32.9,31.0,29.93,NNE,30,0.0,7.0,92,0.06,,,0.06,98,weatherlink.com 1.10,2013-03-15 15:10:00,
2013-03-15 10:25:00,33.0,31.0,29.92,NE,42,0.0,6.0,92,0.06,,,0.06,206,weatherlink.com 1.10,2013-03-15 15:25:00,
2013-03-15 10:40:00,33.2,31.0,29.91,ENE,65,0.0,5.0,92,0.06,,,0.07,146,weatherlink.com 1.10,2013-03-15 15:40:00,
2013-03-15 10:55:00,33.3,31.0,29.91,ENE,59,0.0,7.0,92,0.02,,,0.07,172,weatherlink.com 1.10,2013-03-15 15:55:00,
2013-03-15 11:10:00,33.6,32.0,29.90,NE,56,0.0,9.0,92,0.01,,,0.07,262,weatherlink.com 1.10,2013-03-15 16:10:00,
2013-03-15 11:25:00,33.8,32.0,29.90,ENE,57,5.0,6.0,92,0.01,,,0.07,211,weatherlink.com 1.10,2013-03-15 16:25:00,
2013-03-15 11:40:00,34.0,32.0,29.91,NE,42,0.0,7.0,91,0.00,,,0.07,220,weatherlink.com 1.10,2013-03-15 16:40:00,
2013-03-15 11:55:00,33.9,32.0,29.91,ENE,64,4.0,6.0,91,0.00,,,0.07,220,weatherlink.com 1.10,2013-03-15 16:55:00,
2013-03-15 12:10:00,33.9,32.0,29.92,ENE,63,0.0,6.0,91,0.00,,,0.07,183,weatherlink.com 1.10,2013-03-15 17:10:00,
2013-03-15 12:25:00,34.0,31.0,29.91,ENE,63,0.0,4.0,90,0.00,,,0.07,199,weatherlink.com 1.10,2013-03-15 17:25:00,
2013-03-15 12:40:00,33.9,31.0,29.91,ENE,60,0.0,6.0,90,0.00,,,0.07,186,weatherlink.com 1.10,2013-03-15 17:40:00,
2013-03-15 12:55:00,34.0,31.0,29.91,ENE,59,0.0,6.0,90,0.00,,,0.07,179,weatherlink.com 1.10,2013-03-15 17:55:00,
2013-03-15 13:10:00,34.1,32.0,29.90,ENE,61,0.0,5.0,90,0.00,,,0.07,172,weatherlink.com 1.10,2013-03-15 18:10:00,
2013-03-15 13:25:00,34.2,32.0,29.91,NE,46,2.0,5.0,90,0.00,,,0.07,188,weatherlink.com 1.10,2013-03-15 18:25:00,
2013-03-15 13:40:00,34.2,32.0,29.91,NNE,22,0.0,4.0,90,0.00,,,0.07,158,weatherlink.com 1.10,2013-03-15 18:40:00,
2013-03-15 13:55:00,34.4,32.0,29.91,NNE,32,0.0,1.0,89,0.00,,,0.07,167,weatherlink.com 1.10,2013-03-15 18:55:00,
2013-03-15 14:25:00,34.4,31.0,29.90,ENE,59,0.0,6.0,88,0.00,,,0.07,174,weatherlink.com 1.10,2013-03-15 19:25:00,
2013-03-15 14:55:00,34.4,31.0,29.88,NE,48,0.0,5.0,88,0.00,,,0.07,155,weatherlink.com 1.10,2013-03-15 19:55:00,
2013-03-15 15:10:00,34.4,31.0,29.87,NE,53,0.0,6.0,88,0.00,,,0.07,232,weatherlink.com 1.10,2013-03-15 20:10:00,
2013-03-15 15:25:00,34.6,31.0,29.87,NE,51,0.0,7.0,88,0.00,,,0.07,179,weatherlink.com 1.10,2013-03-15 20:25:00,
2013-03-15 15:40:00,34.4,31.0,29.87,NE,40,2.0,8.0,88,0.00,,,0.07,185,weatherlink.com 1.10,2013-03-15 20:40:00,
2013-03-15 15:55:00,34.6,31.0,29.86,ENE,63,3.0,9.0,88,0.00,,,0.07,167,weatherlink.com 1.10,2013-03-15 20:55:00,
2013-03-15 16:10:00,34.7,32.0,29.86,ENE,65,0.0,5.0,88,0.00,,,0.07,160,weatherlink.com 1.10,2013-03-15 21:10:00,
2013-03-15 16:25:00,34.5,31.0,29.85,ENE,61,0.0,7.0,88,0.00,,,0.07,125,weatherlink.com 1.10,2013-03-15 21:25:00,
2013-03-15 16:40:00,34.4,31.0,29.85,NE,56,3.0,5.0,88,0.00,,,0.07,95,weatherlink.com 1.10,2013-03-15 21:40:00,
2013-03-15 16:55:00,34.4,31.0,29.85,NE,48,0.0,0.0,88,0.00,,,0.07,105,weatherlink.com 1.10,2013-03-15 21:55:00,
2013-03-15 17:10:00,34.4,31.0,29.84,NE,50,0.0,0.0,88,0.00,,,0.07,86,weatherlink.com 1.10,2013-03-15 22:10:00,
2013-03-15 17:25:00,34.4,32.0,29.83,ENE,69,0.0,5.0,89,0.00,,,0.07,102,weatherlink.com 1.10,2013-03-15 22:25:00,
2013-03-15 17:40:00,34.4,31.0,29.84,ENE,67,0.0,0.0,88,0.00,,,0.07,62,weatherlink.com 1.10,2013-03-15 22:40:00,
2013-03-15 17:55:00,34.3,31.0,29.84,ENE,65,0.0,0.0,88,0.00,,,0.07,47,weatherlink.com 1.10,2013-03-15 22:55:00,
2013-03-15 18:10:00,34.2,31.0,29.83,ENE,65,0.0,0.0,88,0.00,,,0.07,44,weatherlink.com 1.10,2013-03-15 23:10:00,
2013-03-15 18:25:00,34.2,31.0,29.83,ENE,59,0.0,5.0,88,0.00,,,0.07,32,weatherlink.com 1.10,2013-03-15 23:25:00,
2013-03-15 18:40:00,34.0,31.0,29.82,ENE,59,0.0,0.0,88,0.00,,,0.07,25,weatherlink.com 1.10,2013-03-15 23:40:00,
2013-03-15 18:55:00,33.8,31.0,29.81,ENE,59,0.0,0.0,88,0.00,,,0.07,9,weatherlink.com 1.10,2013-03-15 23:55:00,
2013-03-15 19:10:00,33.3,30.0,29.82,NE,48,0.0,6.0,88,0.00,,,0.07,5,weatherlink.com 1.10,2013-03-16 00:10:00,
2013-03-15 19:25:00,33.1,30.0,29.84,North,355,3.0,6.0,88,0.00,,,0.07,0,weatherlink.com 1.10,2013-03-16 00:25:00,
2013-03-15 19:40:00,32.9,30.0,29.85,NNW,348,0.0,8.0,88,0.00,,,0.07,0,weatherlink.com 1.10,2013-03-16 00:40:00,
2013-03-15 19:55:00,32.7,30.0,29.86,NNW,347,8.0,9.0,88,0.00,,,0.07,0,weatherlink.com 1.10,2013-03-16 00:55:00,
2013-03-15 20:10:00,32.4,29.0,29.86,NNW,348,6.0,8.0,88,0.00,,,0.07,0,weatherlink.com 1.10,2013-03-16 01:10:00,
2013-03-15 20:25:00,32.1,29.0,29.86,ENE,60,0.0,8.0,88,0.00,,,0.07,0,weatherlink.com 1.10,2013-03-16 01:25:00,
2013-03-15 20:40:00,31.7,29.0,29.86,NE,42,0.0,5.0,89,0.00,,,0.07,0,weatherlink.com 1.10,2013-03-16 01:40:00,
2013-03-15 20:55:00,31.3,29.0,29.87,North,355,6.0,8.0,90,0.00,,,0.07,0,weatherlink.com 1.10,2013-03-16 01:55:00,
2013-03-15 21:10:00,31.0,29.0,29.89,North,355,4.0,10.0,90,0.00,,,0.07,0,weatherlink.com 1.10,2013-03-16 02:10:00,
2013-03-15 21:25:00,30.6,28.0,29.88,North,360,2.0,10.0,91,0.00,,,0.07,0,weatherlink.com 1.10,2013-03-16 02:25:00,
2013-03-15 21:40:00,29.8,28.0,29.89,North,349,7.0,9.0,91,0.00,,,0.07,0,weatherlink.com 1.10,2013-03-16 02:40:00,
2013-03-15 21:55:00,29.4,27.0,29.89,NNE,33,1.0,8.0,91,0.00,,,0.07,0,weatherlink.com 1.10,2013-03-16 02:55:00,
2013-03-15 22:10:00,29.3,27.0,29.90,NNE,26,0.0,6.0,91,0.00,,,0.07,0,weatherlink.com 1.10,2013-03-16 03:10:00,
2013-03-15 22:40:00,29.3,27.0,29.89,North,355,8.0,9.0,92,0.00,,,0.07,0,weatherlink.com 1.10,2013-03-16 03:40:00,
2013-03-15 22:55:00,28.4,26.0,29.90,North,350,7.0,10.0,92,0.00,,,0.07,0,weatherlink.com 1.10,2013-03-16 03:55:00,
2013-03-15 23:10:00,27.8,26.0,29.91,North,355,7.0,11.0,92,0.00,,,0.07,0,weatherlink.com 1.10,2013-03-16 04:10:00,
2013-03-15 23:25:00,27.6,26.0,29.90,NNE,15,5.0,9.0,92,0.00,,,0.07,0,weatherlink.com 1.10,2013-03-16 04:25:00,
2013-03-15 23:40:00,27.1,25.0,29.90,North,355,6.0,9.0,92,0.00,,,0.07,0,weatherlink.com 1.10,2013-03-16 04:40:00,
2013-03-15 23:55:00,26.9,25.0,29.90,North,355,5.0,9.0,92,0.00,,,0.07,0,weatherlink.com 1.10,2013-03-16 04:55:00,